Probability
42 35 45 45 48 52 52 52 55 52 48 39 39 32 35 35 39 39 39 29 32 42 39 45 32 29 29 26 26 29 29 29 19 13 10 10 10 13 10 6 13 3 13
39 35 42 45 45 48 48 48 48 45 45 39 35 32 29 29 29 32 35 32 29 29 32 35 26 26 29 23 23 23 23 16 16 19 23 13 16 13 10 13 10 3 10
32 32 39 45 45 48 48 48 45 42 39 35 32 29 29 29 29 23 26 23 23 23 26 26 23 19 16 10 16 13 16 16 13 13 13 10 10 16 13 19 13 13 16
35 32 35 39 42 42 42 42 39 39 39 32 26 19 23 19 19 16 10 19 16 16 19 23 19 13 13 16 13 10 10 13 13 13 10 3 0 16 13 13 10 13 16
29 29 35 35 35 39 39 39 35 35 35 35 23 19 19 16 13 16 13 10 13 16 13 16 16 13 6 10 13 13 6 6 6 6 0 0 0 13 16 13 13 16 16
23 23 32 35 32 32 29 29 32 29 32 32 23 19 19 19 16 10 13 13 13 13 13 10 13 13 6 6 10 10 13 10 3 3 0 0 0 13 13 10 19 16 16
16 26 29 29 29 29 29 29 29 26 26 26 19 19 16 16 16 13 13 13 16 16 13 16 6 10 10 6 6 10 16 10 3 0 0 0 3 10 13 6 13 16 13
19 23 26 29 29 29 29 29 26 26 26 26 19 19 16 19 16 13 10 10 16 16 16 16 10 13 6 6 6 6 10 3 0 0 0 0 3 16 19 16 13 19 16
16 19 19 23 29 29 29 29 26 26 26 23 23 19 16 16 19 13 6 10 10 13 13 13 6 10 6 6 6 3 3 0 0 0 0 0 3 6 16 16 19 19 16
10 16 16 16 13 19 19 26 26 26 23 23 23 10 3 3 6 16 3 6 10 10 6 6 6 6 3 6 3 3 3 0 0 0 0 0 3 6 13 16 13 19 16
10 13 16 16 16 13 10 13 13 10 10 6 0 0 0 0 0 0 0 3 6 10 6 3 6 6 0 0 0 0 0 0 0 0 0 0 3 3 10 10 13 13 13
6 13 13 13 13 10 6 6 10 6 3 0 0 0 0 0 0 0 0 0 0 3 0 3 3 3 0 0 0 0 0 0 0 0 0 0 3 3 6 10 10 10 13
6 13 13 10 10 10 6 10 10 10 3 0 0 0 0 0 0 0 0 0 0 0 0 0 0 0 0 0 0 0 0 0 0 0 0 0 3 6 3 6 13 13 16
3 10 10 10 10 10 6 6 6 10 3 3 0 0 0 0 0 0 0 0 0 0 0 0 0 0 0 0 0 0 0 0 0 0 0 0 0 10 6 3 6 6 16
0 3 6 10 10 10 10 6 6 6 6 0 0 0 0 0 0 0 0 0 0 0 0 0 0 0 0 0 0 0 0 0 0 0 0 0 0 3 6 6 3 10 13
0 0 0 6 13 13 10 10 6 6 3 6 3 0 0 0 0 0 0 0 0 0 0 0 0 0 0 0 0 0 0 0 0 0 0 0 0 0 6 6 6 10 13
0 0 0 0 6 6 13 10 6 6 3 3 3 0 0 0 0 0 0 0 0 0 0 0 0 0 0 0 0 0 0 0 0 0 0 0 0 0 0 6 10 16 13
0 0 0 0 0 6 6 10 10 6 6 0 0 0 0 0 0 0 0 0 0 0 0 0 0 0 0 0 0 0 0 0 0 0 0 0 0 0 0 0 0 10 13
0 0 0 0 0 0 0 3 3 3 6 3 0 0 0 0 0 0 0 0 0 0 0 0 0 0 0 0 0 0 0 0 0 0 0 0 0 0 0 0 0 3 6
0 0 0 0 0 0 0 0 3 3 0 0 0 0 0 0 0 0 0 0 0 0 0 0 0 0 0 0 0 0 0 0 0 0 0 0 0 0 0 0 0 0 3
0 0 0 0 0 0 0 0 0 0 0 0 0 0 0 0 0 0 0 0 0 0 0 0 0 0 0 0 0 0 0 0 0 0 0 0 0 0 0 0 0 0 0
0 0 0 0 0 0 0 0 0 0 0 0 0 0 0 0 0 0 0 0 0 0 0 0 0 0 0 0 0 0 0 0 0 0 0 0 0 0 0 0 0 0 0
0 0 0 0 0 0 0 0 0 0 0 0 0 0 0 0 0 0 0 0 0 0 0 0 0 0 0 0 0 0 0 0 0 0 0 0 0 0 0 0 0 0 0
0 0 0 0 0 0 0 0 0 0 0 0 0 0 0 0 0 0 0 0 0 0 0 0 0 0 0 0 0 0 0 0 0 0 0 0 0 0 0 0 0 0 0
0 0 0 0 0 0 0 0 0 0 0 0 0 0 0 0 0 0 0 0 0 0 0 0 0 0 0 0 0 0 0 0 0 0 0 0 0 0 0 0 0 0 0
0 0 0 0 0 0 0 0 0 0 0 0 0 0 0 0 0 0 0 0 0 0 0 0 0 0 0 0 0 0 0 0 0 0 0 0 0 0 0 0 0 0 0
Height
5849 5849 5851 5852 5853 5854 5856 5857 5858 5858 5859 5860 5861 5861 5862 5862 5863 5863 5863 5864 5864 5864 5864 5865 5865 5865 5865 5865 5865 5865 5865 5865 5864 5864 5864 5864 5864 5863 5863 5863 5863 5862 5862
5846 5847 5848 5849 5851 5852 5853 5854 5855 5856 5857 5857 5858 5859 5859 5860 5860 5861 5861 5861 5862 5862 5862 5862 5863 5863 5863 5863 5863 5862 5862 5862 5862 5862 5862 5862 5862 5861 5861 5861 5860 5860 5860
5843 5844 5845 5847 5848 5849 5850 5851 5852 5853 5854 5855 5855 5856 5857 5857 5858 5858 5858 5859 5859 5859 5859 5860 5860 5860 5860 5860 5860 5860 5860 5859 5859 5859 5859 5859 5859 5859 5858 5858 5858 5857 5857
5839 5841 5842 5843 5845 5846 5847 5848 5849 5850 5851 5851 5852 5853 5853 5854 5854 5855 5855 5855 5856 5856 5856 5856 5857 5857 5857 5857 5857 5857 5856 5856 5856 5856 5856 5856 5856 5855 5855 5855 5855 5854 5854
5836 5837 5838 5840 5841 5842 5843 5845 5846 5846 5847 5848 5849 5849 5850 5850 5851 5851 5851 5852 5852 5852 5853 5853 5853 5853 5853 5853 5853 5853 5853 5853 5853 5853 5853 5853 5852 5852 5851 5851 5851 5851 5851
5831 5833 5834 5836 5837 5839 5840 5841 5842 5843 5843 5844 5845 5845 5846 5846 5847 5847 5847 5848 5848 5848 5848 5849 5849 5849 5849 5849 5849 5848 5848 5848 5848 5848 5849 5848 5848 5848 5847 5847 5847 5846 5846
5827 5829 5830 5832 5833 5834 5836 5837 5838 5839 5839 5840 5841 5841 5842 5842 5843 5843 5843 5844 5844 5844 5844 5844 5844 5844 5844 5844 5844 5844 5844 5844 5844 5844 5844 5844 5844 5843 5843 5842 5842 5842 5842
5823 5825 5826 5828 5829 5830 5831 5832 5833 5834 5835 5836 5837 5837 5838 5838 5838 5839 5839 5839 5839 5839 5839 5839 5839 5839 5839 5839 5838 5838 5838 5839 5839 5839 5839 5838 5838 5838 5838 5838 5837 5837 5836
5818 5820 5822 5823 5824 5826 5827 5828 5829 5830 5831 5831 5832 5833 5833 5833 5834 5834 5834 5834 5834 5834 5834 5834 5833 5833 5833 5833 5833 5833 5832 5833 5833 5833 5833 5833 5833 5832 5832 5832 5832 5831 5831
5813 5815 5817 5818 5820 5821 5822 5823 5824 5825 5826 5826 5827 5827 5828 5828 5828 5828 5828 5828 5828 5828 5828 5828 5827 5827 5827 5827 5826 5826 5826 5826 5826 5827 5827 5827 5827 5826 5826 5826 5826 5825 5825
5808 5810 5812 5814 5815 5816 5817 5818 5819 5820 5821 5821 5822 5822 5823 5823 5823 5823 5822 5822 5822 5822 5821 5821 5821 5820 5820 5820 5819 5819 5819 5819 5820 5820 5820 5820 5820 5820 5820 5820 5819 5819 5819
5803 5805 5807 5808 5810 5811 5812 5813 5814 5815 5815 5816 5816 5816 5817 5817 5817 5816 5816 5816 5815 5815 5814 5813 5813 5813 5812 5812 5812 5811 5811 5812 5812 5813 5813 5813 5813 5813 5813 5813 5813 5812 5812
5798 5800 5801 5803 5804 5806 5807 5808 5808 5809 5810 5810 5810 5810 5810 5810 5810 5809 5809 5808 5808 5807 5806 5805 5805 5804 5804 5804 5804 5803 5803 5804 5804 5805 5805 5805 5805 5805 5805 5805 5805 5805 5805
5792 5794 5796 5797 5799 5800 5801 5802 5803 5803 5804 5804 5804 5804 5804 5803 5803 5802 5802 5801 5800 5799 5798 5797 5797 5796 5795 5795 5795 5795 5795 5795 5795 5796 5796 5796 5796 5797 5797 5797 5797 5797 5796
5786 5788 5790 5791 5793 5794 5795 5796 5796 5797 5797 5797 5797 5797 5797 5796 5795 5794 5794 5793 5792 5791 5790 5789 5788 5787 5787 5786 5785 5785 5785 5785 5786 5786 5787 5787 5787 5787 5787 5787 5787 5787 5787
5780 5782 5783 5785 5786 5787 5788 5789 5790 5790 5790 5790 5790 5790 5789 5788 5787 5786 5785 5784 5783 5782 5781 5780 5779 5778 5777 5776 5776 5775 5775 5775 5775 5776 5776 5777 5777 5777 5778 5778 5778 5778 5778
5773 5775 5777 5778 5779 5780 5781 5782 5783 5783 5783 5783 5783 5782 5781 5780 5779 5778 5777 5775 5774 5773 5772 5770 5769 5768 5767 5766 5766 5765 5764 5764 5765 5765 5765 5766 5766 5767 5767 5767 5767 5767 5767
5766 5768 5770 5772 5773 5774 5774 5775 5775 5776 5776 5775 5775 5774 5773 5772 5771 5770 5768 5766 5765 5763 5762 5761 5759 5758 5757 5756 5755 5754 5754 5754 5754 5754 5754 5755 5755 5756 5756 5756 5757 5757 5756
5760 5761 5763 5765 5766 5767 5767 5768 5768 5768 5768 5768 5767 5766 5765 5764 5762 5761 5759 5757 5756 5754 5752 5751 5749 5748 5746 5745 5744 5744 5743 5742 5742 5742 5742 5742 5743 5744 5745 5745 5745 5745 5745
5753 5755 5756 5758 5759 5760 5760 5760 5761 5760 5760 5760 5759 5758 5757 5755 5754 5752 5750 5748 5746 5745 5742 5741 5739 5737 5736 5734 5733 5733 5732 5731 5730 5730 5730 5730 5731 5732 5732 5732 5732 5732 5733
5746 5748 5749 5751 5752 5753 5753 5753 5753 5753 5752 5752 5751 5749 5748 5747 5745 5743 5741 5739 5737 5735 5733 5731 5729 5727 5725 5723 5722 5722 5721 5719 5718 5717 5717 5717 5718 5719 5719 5719 5719 5719 5720
5739 5741 5743 5744 5745 5745 5745 5745 5745 5745 5744 5743 5742 5741 5740 5738 5737 5735 5733 5730 5728 5726 5724 5722 5720 5718 5715 5713 5711 5710 5709 5709 5706 5705 5705 5705 5705 5706 5706 5706 5706 5707 5707
5732 5734 5735 5736 5737 5737 5737 5737 5737 5736 5735 5735 5734 5732 5731 5729 5728 5726 5724 5722 5720 5718 5715 5713 5710 5708 5705 5703 5700 5698 5696 5695 5694 5695 5693 5693 5692 5692 5693 5693 5693 5693 5693
5725 5727 5728 5729 5729 5730 5730 5729 5729 5728 5727 5726 5725 5724 5722 5721 5719 5717 5715 5713 5711 5709 5706 5704 5701 5698 5695 5693 5690 5687 5684 5682 5680 5680 5682 5681 5680 5680 5680 5680 5679 5680 5680
5717 5719 5720 5721 5722 5722 5722 5721 5721 5720 5719 5718 5716 5715 5714 5712 5710 5708 5706 5704 5702 5700 5697 5694 5691 5688 5685 5682 5679 5676 5673 5670 5667 5666 5668 5669 5669 5668 5667 5667 5666 5666 5666
5709 5711 5712 5713 5713 5714 5714 5713 5712 5711 5710 5709 5708 5707 5705 5703 5701 5699 5697 5695 5693 5690 5687 5685 5682 5678 5675 5672 5669 5665 5662 5659 5657 5654 5655 5656 5656 5656 5655 5654 5653 5653 5654
Wind_Speed
18 18 18 17 17 17 16 16 16 16 15 15 15 15 15 15 15 15 15 14 14 14 14 14 14 14 13 13 13 13 13 13 13 13 13 13 13 13 13 12 12 12 12
20 19 19 19 18 18 18 18 18 18 17 17 17 17 17 17 17 17 17 16 16 16 16 16 16 16 16 16 15 15 16 15 15 15 15 14 14 14 15 14 14 14 14
21 21 20 20 20 19 19 19 19 19 19 19 19 19 19 19 19 19 19 18 18 18 18 18 18 18 18 18 18 18 18 18 18 17 17 17 17 17 17 17 17 17 16
22 22 22 21 21 21 20 20 20 20 20 20 20 20 20 20 20 20 20 20 20 20 21 21 21 20 20 20 20 20 20 20 20 20 20 19 19 19 19 19 19 18 19
24 24 23 23 23 22 22 22 21 21 22 22 21 21 21 21 22 22 22 22 22 22 22 23 23 23 22 22 22 22 22 22 22 22 22 21 21 21 22 21 21 21 21
25 25 25 24 24 24 24 23 23 23 23 23 23 22 22 22 23 23 23 24 24 24 24 25 25 25 25 25 24 24 24 24 25 24 24 24 23 24 24 23 24 23 23
26 25 26 25 25 25 25 25 24 24 24 24 23 24 23 23 24 24 24 25 25 25 26 26 26 27 27 27 27 27 27 26 26 26 26 25 25 25 25 25 25 25 25
26 26 26 26 26 26 26 25 25 25 25 25 25 25 24 24 25 25 25 26 26 26 27 28 28 29 29 29 29 29 29 29 29 28 28 28 27 27 27 27 27 27 26
27 27 27 27 26 26 26 26 26 26 26 26 25 25 26 26 26 27 27 27 28 28 28 29 29 30 30 31 31 31 31 31 31 30 29 29 29 28 28 28 28 28 28
28 28 27 27 27 26 26 26 26 26 26 26 26 27 27 27 28 28 28 29 29 30 30 31 31 32 32 33 33 33 33 32 32 31 31 31 31 30 30 30 29 30 29
29 28 28 27 27 27 27 27 27 27 27 27 27 28 28 29 29 30 30 30 31 32 32 33 33 34 34 34 35 34 34 34 34 34 33 33 33 33 32 32 32 31 31
29 29 29 28 28 28 27 27 27 27 28 28 28 29 29 30 31 31 32 32 33 34 34 35 35 35 36 36 36 36 36 36 36 36 35 35 35 34 35 34 34 34 34
31 30 30 30 29 29 29 28 28 28 29 30 30 30 31 31 32 33 33 34 35 35 36 36 36 37 37 37 37 37 38 38 38 38 38 38 37 37 37 36 36 36 36
31 31 31 30 30 30 30 30 30 30 31 31 32 32 32 33 33 34 34 35 36 36 36 37 37 38 38 39 39 39 40 40 40 40 40 40 39 39 39 38 38 38 38
32 32 31 31 31 31 31 31 31 31 31 32 32 33 34 34 34 35 35 36 37 37 38 38 38 38 39 40 40 41 41 41 41 42 41 42 41 41 41 41 41 41 40
32 32 32 32 32 32 32 32 32 32 32 33 34 34 35 35 35 36 36 37 37 38 38 38 39 39 40 41 42 42 42 43 42 43 43 43 43 42 42 42 42 43 42
33 33 32 32 33 33 33 33 33 33 33 34 35 35 36 36 36 37 37 38 38 38 39 39 40 41 41 42 42 43 43 43 43 43 44 45 45 44 44 44 44 45 45
33 33 32 32 32 33 33 33 33 33 33 34 35 35 36 36 36 37 37 38 38 39 40 40 41 41 41 41 42 42 43 44 44 45 45 46 46 45 45 46 46 46 46
32 32 32 32 32 32 33 33 33 33 33 34 34 35 35 35 36 37 37 38 39 39 40 41 41 42 42 42 42 43 44 45 45 45 46 46 47 47 47 47 47 47 47
32 32 32 32 32 32 33 33 33 34 34 34 34 34 35 35 36 37 37 38 39 39 40 41 41 42 42 42 42 43 43 45 46 46 47 47 47 48 48 48 48 48 47
32 32 32 32 32 32 33 33 33 34 34 34 34 35 35 35 36 36 37 37 37 38 39 39 39 40 41 41 42 42 43 44 45 46 47 47 48 49 49 48 47 47 47
32 32 32 32 32 32 33 33 34 34 34 35 35 35 36 36 36 36 37 37 37 37 38 39 39 40 41 41 42 42 42 43 44 46 46 47 47 47 48 47 47 48 48
32 32 32 32 32 32 32 33 34 34 35 35 35 35 35 36 36 36 36 36 36 37 38 39 40 41 41 41 42 43 43 43 44 45 46 45 45 45 46 46 47 49 49
32 32 32 31 32 32 32 33 33 34 34 34 34 34 35 36 36 35 35 36 37 37 38 39 39 40 41 41 42 42 43 44 45 45 44 44 44 44 45 46 47 47 48
32 32 32 32 32 32 32 33 33 33 34 34 34 34 35 36 36 36 36 37 37 38 38 39 39 40 40 40 41 42 43 44 44 44 43 42 43 45 45 46 47 48 47
32 32 32 32 32 32 33 33 33 33 34 34 34 35 36 36 36 36 37 37 38 39 39 40 40 40 39 40 41 42 42 41 41 41 42 42 42 43 44 45 46 47 47
Wind_Direction
240 241 242 244 245 247 249 251 253 254 254 254 256 258 260 263 265 267 269 271 273 274 275 276 277 278 279 281 282 283 284 284 285 286 286 287 287 286 285 286 284 283 284
242 243 244 246 247 248 250 252 255 256 257 258 258 259 261 263 265 268 269 270 271 273 274 275 276 277 279 279 280 281 282 282 282 282 283 285 285 285 284 283 281 279 281
243 245 246 247 249 250 252 254 255 256 257 259 260 261 262 263 265 267 269 270 271 273 274 276 277 278 279 279 277 278 279 280 280 280 281 282 283 283 284 283 280 278 279
244 245 247 249 251 252 253 255 256 257 258 260 262 263 264 266 266 267 268 269 271 273 274 275 276 277 278 278 278 278 278 279 280 279 279 280 281 281 282 282 282 281 280
245 246 247 249 251 253 255 256 258 259 260 261 262 263 264 266 266 267 268 269 271 272 273 274 275 276 277 277 277 277 278 278 280 278 278 279 279 280 280 280 280 280 281
245 247 248 250 252 254 256 258 259 260 261 262 263 264 265 266 267 268 270 271 272 272 273 274 274 275 276 276 276 277 277 278 279 278 277 276 277 278 278 278 279 279 279
246 248 249 251 253 254 256 258 259 260 261 262 263 264 265 265 266 268 270 271 272 274 274 274 275 275 276 276 276 276 277 277 277 278 277 277 277 277 277 277 277 277 278
247 249 251 252 253 254 256 258 259 260 261 263 264 265 265 266 267 269 271 272 272 273 274 275 276 276 276 276 276 276 276 276 276 276 277 277 277 277 276 275 275 275 276
247 249 251 252 253 255 257 258 259 261 262 263 264 265 267 268 269 271 272 273 274 275 275 276 276 277 277 277 277 276 275 275 275 275 275 276 276 276 276 275 274 274 275
247 249 250 252 253 255 257 258 259 261 262 263 265 266 268 269 270 272 273 274 275 275 276 276 276 276 276 277 276 276 275 275 275 275 274 273 274 274 275 275 274 274 274
247 249 250 252 254 256 257 258 260 262 263 265 267 268 270 270 271 272 273 274 276 276 276 276 276 276 276 276 275 274 274 274 273 274 274 274 273 273 274 274 273 273 274
248 250 252 253 255 257 259 260 262 264 265 267 269 270 272 273 273 274 275 276 276 277 277 277 277 277 276 275 274 273 273 273 273 273 274 274 273 272 272 273 272 273 274
250 251 252 254 255 258 259 261 263 265 266 268 270 271 273 274 275 276 276 277 277 278 278 278 277 277 276 274 273 272 272 272 272 272 273 273 272 272 272 272 272 273 274
251 252 253 254 256 258 260 262 264 266 268 269 270 272 273 275 277 277 277 278 278 278 278 278 278 277 277 276 275 273 271 271 272 272 272 272 272 271 271 271 272 272 273
251 252 254 255 257 259 261 263 265 267 268 269 271 273 274 276 278 278 278 279 279 278 277 277 277 277 277 277 276 274 272 271 271 271 272 273 272 271 271 271 271 272 273
251 253 255 257 258 259 261 263 265 268 270 272 273 274 276 278 279 280 280 280 280 279 278 278 278 277 277 277 277 275 274 272 271 271 271 272 272 272 270 270 270 272 273
252 253 255 257 258 260 262 264 266 269 271 273 274 275 277 278 279 280 281 281 280 280 279 279 279 279 278 277 277 276 274 273 272 271 271 271 272 272 271 270 270 271 272
252 254 256 257 260 261 263 264 267 270 272 274 275 276 278 279 280 281 282 282 281 281 281 281 280 280 279 278 277 277 275 274 274 273 272 272 271 271 271 271 271 272 272
253 254 257 258 260 261 263 266 268 270 272 274 276 277 278 280 281 283 283 282 282 282 282 282 282 281 281 279 278 277 276 275 274 273 272 272 271 270 271 270 271 272 272
254 255 257 259 261 262 265 267 269 271 273 276 277 278 279 281 282 284 284 283 283 283 283 283 283 282 282 281 279 278 277 276 276 274 273 272 271 270 271 270 270 271 271
255 256 258 260 261 264 266 268 270 272 274 277 278 279 280 281 283 284 284 284 285 285 285 285 285 285 284 283 282 280 279 278 277 275 274 273 271 270 270 270 269 271 271
255 257 258 261 263 265 267 268 270 273 275 276 277 279 281 282 283 285 285 285 285 286 286 286 286 286 285 284 284 284 282 280 278 277 276 274 272 271 270 270 270 271 272
256 257 259 261 264 266 268 270 272 274 275 276 278 281 282 283 284 285 285 286 286 286 287 287 287 287 287 287 287 287 285 283 280 277 276 274 272 271 271 271 271 272 273
256 258 260 262 264 266 268 271 273 275 275 277 278 280 282 284 285 285 285 286 286 287 288 289 289 289 288 288 288 288 287 286 283 279 276 275 273 272 273 272 273 273 273
257 258 260 262 265 267 270 273 275 275 276 277 279 281 283 284 284 284 285 286 287 287 289 291 290 290 291 290 289 289 289 287 285 282 278 275 274 273 274 273 273 272 273
256 259 261 263 265 268 271 273 275 275 276 278 279 280 282 283 283 283 285 286 288 288 289 290 291 291 291 291 291 291 290 287 285 284 281 278 276 275 275 274 274 274 273